User: anonymous   Login
Location: Mason
(37.5237°N, 89.2543°W)
Time: 06:51:19
(UTC+00:00)
Language:

CZ-4B R/B - Orbit

View from above orbital plane
View from above orbital plane
View from above satellite
View from above satellite

Ground track
Ground track

The orbit data is extracted from the following two-line orbital elements,

1 29093U 06015B   22147.56989081  .00025494  00000-0  32874-3 0  9998
2 29093  97.6044   5.7218 0038528 259.4745 100.2168 15.58081547896308
Epoch (UTC): 27 May 2022 13:40:38
Eccentricity: 0.0038528
inclination: 97.6044°
perigee height: 367 km
apogee height: 419 km
right ascension of ascending node: 5.7218°
argument of perigee: 259.4745°
revolutions per day: 15.58081547
mean anomaly at epoch: 100.2168°
orbit number at epoch: 89630

The dashed part of the orbit path shows where the satellite is in the earth's shadow,  

DLR